Stations météo

Publicité
Aerodrome Toussus-Le-Noble, France (7146): Température de l'air & dewpoint: 26.10.2020 00:00:00 - 01.11.2020 00:00:00 (CET)Aerodrome Toussus-Le-Noble, France (7146): Température de l'air 5cm: 26.10.2020 00:00:00 - 01.11.2020 00:00:00 (CET)Aerodrome Toussus-Le-Noble, France (7146): Vitesse du vent & gusts: 26.10.2020 00:00:00 - 01.11.2020 00:00:00 (CET)Aerodrome Toussus-Le-Noble, France (7146): Direction du vent: 26.10.2020 00:00:00 - 01.11.2020 00:00:00 (CET)Aerodrome Toussus-Le-Noble, France (7146): reduced air pressure: 26.10.2020 00:00:00 - 01.11.2020 00:00:00 (CET)Aerodrome Toussus-Le-Noble, France (7146): visibility: 26.10.2020 00:00:00 - 01.11.2020 00:00:00 (CET)Aerodrome Toussus-Le-Noble, France (7146): Quantités de précipitations: 26.10.2020 00:00:00 - 01.11.2020 00:00:00 (CET)
Date & Time tt [°C] td [°C] tt 5cm [°C] ff [km/h] ff [knt] fx [km/h] fx [knt] dd ppp [hPa] vv [km] rr [mm]
01.11.2020 00:00:00 13,3 11,2 12,6 11 6 18 10 SW 1017,1 60 0,0
31.10.2020 23:00:00 13,7 11,4 12,9 11 6 20 11 WSW 1017,1 60 0,0
31.10.2020 22:00:00 14,3 12,2 13,6 12 6 37 20 W 1016,8 41 0,0
31.10.2020 21:00:00 15,4 13,4 14,6 22 12 41 22 WSW 1016,3 38 0,4
31.10.2020 20:00:00 15,6 13,3 14,5 22 12 38 21 SW 1015,9 16 0,0
31.10.2020 19:00:00 15,3 13,1 14,5 24 13 42 23 SW 1016,0 46 0,4
31.10.2020 18:00:00 16,3 12,8 14,8 21 11 51 28 SW 1016,2 8 0,2
31.10.2020 17:00:00 17,1 12,4 15,9 27 14 44 24 SSW 1015,5 55 0,0
31.10.2020 16:00:00 16,9 12,6 16,5 21 11 34 18 S 1015,9 49 0,0
31.10.2020 15:00:00 16,5 12,1 16,3 22 12 39 21 SSW 1016,3 42 0,0
31.10.2020 14:00:00 15,5 11,9 15,3 22 12 40 22 S 1016,9 21 0,0
31.10.2020 13:00:00 14,6 10,4 15,9 25 14 42 23 SSW 1017,7 34 0,0
31.10.2020 12:00:00 15,1 10,5 16,1 21 12 33 18 S 1018,2 34 0,0
31.10.2020 11:00:00 13,4 9,6 15,5 18 10 29 15 SSE 1018,7 36 0,0
31.10.2020 10:00:00 12,7 8,8 12,6 16 9 27 15 S 1019,9 36 0,0
31.10.2020 09:00:00 11,0 8,4 9,2 11 6 17 9 SSE 1020,3 29 0,0
31.10.2020 08:00:00 9,9 8,5 8,9 10 5 15 8 SE 1020,7 19 0,0
31.10.2020 07:00:00 10,5 8,6 9,9 10 6 20 11 SSE 1020,9 36 0,0
31.10.2020 06:00:00 11,3 9,0 9,5 12 6 20 11 SSE 1021,8 44 0,0
31.10.2020 05:00:00 10,6 8,7 9,1 9 5 13 7 SSE 1022,5 29 0,0
31.10.2020 04:00:00 11,9 9,3 11,3 8 4 15 8 SSE 1022,7 44 0,0
31.10.2020 03:00:00 12,5 9,3 11,8 9 5 13 7 SSE 1023,4 17 0,0
31.10.2020 02:00:00 12,8 9,2 12,1 4 2 12 7 S 1023,9 44 0,0
31.10.2020 01:00:00 13,3 9,4 12,6 10 5 13 7 S 1023,8 45 0,0
31.10.2020 00:00:00 13,5 9,9 12,8 9 5 13 7 S 1024,2 42 0,0
30.10.2020 23:00:00 13,5 9,9 13,0 9 5 14 8 S 1024,7 40 0,0
30.10.2020 22:00:00 13,4 10,2 12,9 10 6 18 10 S 1025,0 42 0,0
30.10.2020 21:00:00 13,5 10,7 13,0 10 6 16 9 S 1024,8 43 0,0
30.10.2020 20:00:00 13,5 10,8 13,2 9 5 19 10 SSW 1024,8 43 0,0
30.10.2020 19:00:00 13,5 11,0 13,3 8 5 15 8 SW 1024,9 55 0,0
30.10.2020 18:00:00 13,6 10,9 12,8 11 6 18 10 SSW 1024,5 53 0,0
30.10.2020 17:00:00 14,3 11,4 14,4 11 6 29 16 SW 1024,3 52 0,0
30.10.2020 16:00:00 14,7 11,3 15,0 19 10 29 16 SW 1024,1 57 0,0
30.10.2020 15:00:00 15,0 11,4 15,4 19 11 29 16 SSW 1024,2 55 0,0
30.10.2020 14:00:00 15,2 11,0 15,7 18 10 30 16 SW 1024,0 51 0,0
30.10.2020 13:00:00 15,1 11,3 14,8 18 10 32 18 SW 1024,2 51 0,0
30.10.2020 12:00:00 14,1 11,3 14,2 16 8 29 16 SW 1024,5 46 0,0
30.10.2020 11:00:00 14,0 11,2 14,5 21 11 34 18 SSW 1024,2 43 0,0
30.10.2020 10:00:00 13,7 11,6 13,2 18 10 28 15 SSW 1023,8 42 0,0
30.10.2020 09:00:00 13,2 11,3 12,9 15 8 27 14 SSW 1023,7 36 0,0
30.10.2020 08:00:00 12,9 11,1 12,6 14 8 29 16 SSW 1023,2 33 0,0
30.10.2020 07:00:00 12,8 11,0 12,7 16 9 27 14 SSW 1022,7 28 0,0
30.10.2020 06:00:00 13,0 11,1 12,8 16 8 31 17 SSW 1022,9 20 0,0
30.10.2020 05:00:00 13,1 11,2 12,6 21 12 34 18 SW 1022,6 33 0,0
30.10.2020 04:00:00 13,0 11,2 12,5 21 11 35 19 SW 1022,3 39 0,0
30.10.2020 03:00:00 12,9 11,3 12,4 19 10 31 17 SW 1022,2 41 0,0
30.10.2020 02:00:00 12,8 11,2 12,4 18 10 31 17 SW 1022,1 41 0,0
30.10.2020 01:00:00 12,9 11,6 12,5 16 9 30 16 SW 1021,9 31 0,2
30.10.2020 00:00:00 13,5 11,2 13,1 23 12 34 18 SW 1022,0 57 0,0
29.10.2020 23:00:00 13,4 11,3 12,6 20 11 31 17 SW 1021,8 46 0,0
29.10.2020 22:00:00 13,6 11,3 12,9 22 12 34 18 SW 1021,6 52 0,0
29.10.2020 21:00:00 13,8 11,5 13,4 21 12 41 22 SW 1021,3 51 0,0
29.10.2020 20:00:00 13,9 11,4 13,3 19 10 34 18 SW 1021,0 55 0,0
29.10.2020 19:00:00 13,5 11,2 13,2 15 8 33 18 SSW 1020,8 52 0,0
29.10.2020 18:00:00 13,5 11,4 13,1 18 10 34 19 SW 1020,6 45 0,0
29.10.2020 17:00:00 13,8 11,5 13,9 15 8 31 17 SW 1020,4 20 0,0
29.10.2020 16:00:00 13,7 11,4 13,7 15 8 29 16 SW 1020,5 16 0,0
29.10.2020 15:00:00 13,7 10,7 13,4 20 11 32 18 SW 1020,5 39 0,0
29.10.2020 14:00:00 13,1 10,3 13,0 15 8 25 14 SW 1021,2 19 0,0
29.10.2020 13:00:00 13,1 9,9 13,4 19 10 35 19 WSW 1021,2 20 0,0
29.10.2020 12:00:00 13,2 10,0 13,6 20 11 35 19 WSW 1021,4 39 0,0
29.10.2020 11:00:00 11,9 9,6 11,7 17 9 29 16 SW 1021,1 20 0,0
29.10.2020 10:00:00 11,2 9,1 10,5 18 10 29 16 WSW 1020,9 32 0,0
29.10.2020 09:00:00 10,4 8,7 9,7 15 8 29 15 SW 1020,4 32 0,0
29.10.2020 08:00:00 9,9 8,2 8,9 19 11 30 16 SW 1019,8 39 0,0
29.10.2020 07:00:00 9,6 7,7 8,9 14 8 31 17 WSW 1019,1 43 0,0
29.10.2020 06:00:00 9,8 7,9 9,2 16 9 26 14 WSW 1018,4 43 0,0
29.10.2020 05:00:00 9,8 7,9 9,2 11 6 20 11 WSW 1017,5 48 0,0
29.10.2020 04:00:00 9,9 8,0 9,3 15 8 27 15 WSW 1016,8 46 0,0
29.10.2020 03:00:00 9,7 8,0 9,2 13 7 28 15 WSW 1016,2 59 0,0
29.10.2020 02:00:00 9,9 8,2 9,2 20 11 61 33 W 1015,7 35 3,0
29.10.2020 01:00:00 12,0 8,5 11,4 25 13 42 23 WSW 1014,8 20 0,0
29.10.2020 00:00:00 11,8 8,5 11,2 26 14 42 23 WSW 1014,2 20 0,0
28.10.2020 23:00:00 11,9 8,6 11,1 24 13 45 24 WSW 1013,9 35 0,0
28.10.2020 22:00:00 11,9 8,2 11,4 30 16 54 29 WSW 1013,0 42 0,0
28.10.2020 21:00:00 12,0 8,7 11,4 30 16 55 30 WSW 1012,3 40 0,0
28.10.2020 20:00:00 12,3 8,8 11,7 35 19 57 31 SW 1011,8 39 0,0
28.10.2020 19:00:00 12,6 8,7 12,2 33 18 62 33 SW 1011,4 44 0,0
28.10.2020 18:00:00 12,7 9,3 12,3 26 14 49 27 SW 1011,1 43 0,0
28.10.2020 17:00:00 12,9 9,2 11,8 31 17 50 27 SW 1011,2 43 0,0
28.10.2020 16:00:00 12,8 9,2 11,7 26 14 48 26 SSW 1011,3 20 0,0
28.10.2020 15:00:00 13,5 8,8 13,8 29 16 53 29 SSW 1011,3 20 0,0
28.10.2020 14:00:00 13,4 8,7 13,5 34 19 51 28 SW 1011,5 20 0,0
28.10.2020 13:00:00 12,7 9,1 12,8 27 14 47 25 SSW 1011,9 20 0,0
28.10.2020 12:00:00 12,1 9,1 12,8 30 16 51 27 SW 1012,3 20 0,0
28.10.2020 11:00:00 11,8 8,8 12,3 30 16 53 29 SW 1011,7 18 0,0
28.10.2020 10:00:00 11,6 9,3 12,0 30 16 46 25 SW 1011,7 15 0,0
28.10.2020 09:00:00 10,8 8,6 8,8 21 12 33 18 SSW 1011,5 19 0,0
28.10.2020 08:00:00 9,0 7,6 8,4 21 11 36 19 SW 1011,0 19 0,0
28.10.2020 07:00:00 9,2 7,6 8,6 22 12 35 19 SW 1010,4 33 0,0
28.10.2020 06:00:00 9,5 7,8 8,9 21 12 32 18 SW 1009,7 40 0,0
28.10.2020 05:00:00 10,2 8,6 9,5 16 9 33 18 WSW 1008,7 41 0,0
28.10.2020 04:00:00 11,1 10,2 10,1 17 9 28 15 WSW 1008,4 20 0,0
28.10.2020 03:00:00 11,1 10,0 10,2 16 9 26 14 SW 1007,4 28 0,0
28.10.2020 02:00:00 11,5 10,6 10,5 14 7 25 14 SW 1007,4 30 0,0
28.10.2020 01:00:00 11,2 10,3 10,3 14 8 22 12 SW 1007,2 37 0,0
28.10.2020 00:00:00 10,9 9,7 10,3 13 7 20 11 SW 1006,5 60 0,0
27.10.2020 23:00:00 11,4 10,0 10,7 12 6 26 14 WSW 1006,3 60 0,2
27.10.2020 22:00:00 11,9 10,8 11,3 13 7 23 13 WSW 1005,9 16 0,0
27.10.2020 21:00:00 12,4 11,3 12,0 13 7 54 29 WSW 1004,9 12 1,2
27.10.2020 20:00:00 12,5 11,7 11,6 28 15 55 30 SW 1003,9 3,4 0,4
27.10.2020 19:00:00 11,9 11,0 11,0 34 18 50 27 SSW 1003,5 9 0,0
27.10.2020 18:00:00 11,2 10,3 10,7 30 16 53 29 SSW 1003,8 4,9 0,4
27.10.2020 17:00:00 10,8 9,9 10,6 31 17 53 29 SSW 1004,0 3,4 0,2
27.10.2020 16:00:00 10,8 9,7 10,5 32 18 52 28 S 1004,4 3,9 0,4
27.10.2020 15:00:00 10,6 9,5 10,5 29 16 50 27 S 1005,0 4,6 0,8
27.10.2020 14:00:00 10,6 9,2 10,4 32 17 47 26 S 1005,8 7 0,2
27.10.2020 13:00:00 10,7 8,6 10,4 28 15 50 27 S 1006,9 19 0,0
27.10.2020 12:00:00 10,0 8,3 9,4 21 12 37 20 S 1008,1 37 0,2
27.10.2020 11:00:00 9,3 7,4 9,4 20 11 32 17 SSW 1008,6 15 0,0
27.10.2020 10:00:00 8,8 6,9 8,4 23 12 35 19 SSW 1008,6 19 0,0
27.10.2020 09:00:00 7,8 6,4 7,3 20 11 32 17 SW 1008,7 17 0,0
27.10.2020 08:00:00 7,2 5,8 6,9 16 9 28 15 SSW 1008,3 17 0,0
27.10.2020 07:00:00 7,2 5,8 6,7 17 9 33 18 SW 1008,4 18 0,0
27.10.2020 06:00:00 7,2 5,7 6,7 19 10 34 18 SW 1007,8 20 0,0
27.10.2020 05:00:00 7,3 5,8 6,7 19 11 37 20 SW 1007,3 28 0,0
27.10.2020 04:00:00 7,5 6,0 6,9 18 10 34 18 SW 1007,3 28 0,0
27.10.2020 03:00:00 7,6 6,2 7,0 19 10 30 16 WSW 1007,5 27 0,0
27.10.2020 02:00:00 7,9 6,5 7,0 16 9 29 16 SW 1007,7 32 0,0
27.10.2020 01:00:00 7,6 6,1 6,9 16 9 23 12 SW 1007,4 48 0,0
27.10.2020 00:00:00 7,7 6,0 7,0 14 7 23 12 SW 1007,7 60 0,0
26.10.2020 23:00:00 7,8 5,8 7,0 16 8 25 13 SW 1007,2 60 0,0
26.10.2020 22:00:00 8,3 6,1 7,6 16 9 24 13 SW 1006,9 55 0,0
26.10.2020 21:00:00 8,9 5,8 8,1 15 8 26 14 SW 1006,4 58 0,0
26.10.2020 20:00:00 9,9 6,1 8,7 18 10 29 16 WSW 1006,0 60 0,0
26.10.2020 19:00:00 10,4 6,9 9,0 11 6 25 14 SW 1005,8 48 0,0
26.10.2020 18:00:00 10,8 6,0 10,1 13 7 28 15 SW 1005,3 56 0,0
26.10.2020 17:00:00 12,2 5,8 11,5 18 10 41 22 WSW 1004,6 56 0,0
26.10.2020 16:00:00 12,9 5,6 12,2 26 14 42 23 WSW 1004,5 36 0,0
26.10.2020 15:00:00 13,5 5,9 13,2 19 11 45 24 WSW 1004,2 49 0,0
26.10.2020 14:00:00 13,4 6,3 13,7 30 16 46 25 WSW 1004,4 30 0,0
26.10.2020 13:00:00 13,2 7,4 14,5 26 14 45 24 SW 1004,7 40 0,0
26.10.2020 12:00:00 12,7 7,8 12,7 27 14 42 23 SW 1004,9 19 0,0
26.10.2020 11:00:00 11,9 7,4 14,3 21 11 38 20 SW 1005,1 34 0,0
26.10.2020 10:00:00 10,2 6,9 10,8 25 14 37 20 SW 1005,3 20 0,0
26.10.2020 09:00:00 8,4 6,4 6,5 23 12 33 18 SW 1005,5 60 0,0
26.10.2020 08:00:00 6,6 5,5 5,7 16 8 27 15 SW 1005,4 34 0,0
26.10.2020 07:00:00 6,4 5,3 5,9 19 10 29 16 SW 1004,3 41 0,0
26.10.2020 06:00:00 6,8 5,6 6,1 15 8 31 17 SW 1003,7 41 0,0
26.10.2020 05:00:00 7,0 5,8 6,5 21 11 32 17 WSW 1003,1 43 0,0
26.10.2020 04:00:00 7,5 6,3 7,1 21 12 31 17 SW 1003,1 39 0,0
26.10.2020 03:00:00 8,4 7,0 7,8 19 10 36 20 SW 1003,1 43 0,0
26.10.2020 02:00:00 8,4 7,2 8,0 21 11 32 17 SW 1002,8 41 0,0
26.10.2020 01:00:00 8,5 7,4 8,1 18 10 37 20 WSW 1003,2 38 0,0
26.10.2020 00:00:00 8,6 7,5 8,1 21 12 35 19 SW 1003,6 39 0,0

tt = Température de l'air
td = dewpoint
tt 5cm = Température de l'air 5cm
ff = Vitesse du vent
fx = gusts
dd = Direction du vent
ppp = reduced air pressure
vv = visibility
rr = Quantités de précipitations

stations d'obs. à proximité